Aeroporto :
LOGIN :

Iscrizione | Disclaimer

   EN    FR    IT 

 










Sommario :    VFR   VFR Marginale   IFR   IFR Intensivo   IFR Molto Intensivo
Visibilità : 
Base nubi : 
>= 8 km
>= 3000ft
5 / 8 km
1000 / 3000 ft
1500m / 5 km
500 / 1000 ft
800 / 1500m
200 / 500 ft
< 800m
< 200 ft
Simboli :   Temporali  Nebbia  Neve Forte  Precipitazioni Forti  Vento > 20 kt
SIGMETs :   Varie  Temporali  Ghiacco  Turbolenza  Onda orograficha  Ceneri Vulcaniche






- Altitudine del aeroporto : 336 ft
- Codice IATA : GCI


EGJB - Guernsey

ULTIMO METAR :
  • 072350Z 34008KT 300V030 CAVOK 18/15 Q1018

METARs OBSOLETI :
  • 072250Z 33007KT 290V010 CAVOK 18/16 Q1018
  • 072150Z 36006KT 9999 VCSH NSC 18/15 Q1018

TAF TAF EGJB
Valido dal 08 a 00 ore il 08 a 09 ore UTC


072256Z 0800/0809 35010KT CAVOK
PROB30
TEMPO 0800/0803 9000 -SHRA BKN100CB
ATIS : +44 1481 238 957



MetMap, La meteo Aeronautica in un colpo d'occhio ! - Copyright ORBIFLY Dicembre 2007 - Disclaimer

ORBIFLY MET'MAP TEAM :

Programmazione e sviluppo : Alexandra Zaïnal
Concezione : Baudouin d'Aumeries
Aiuto per la programmazione : Marc-Olivier Méhu
Supporto tecnico e logistico : Manuel Goepfert
Aiuto per la traduzione : Arnaldo La Scala

Contatto : metmap@orbifly.com




FONTI E CREDITI :

   NOAA